Stations météo

réclame
Mon MeteoGroup
Friesoythe-Altenoythe, Allemagne (10210): Température de l'air & dewpoint: 19.09.2020 19:00:00 - 25.09.2020 19:00:00 (CEST)Friesoythe-Altenoythe, Allemagne (10210): Température de l'air 5cm & Température de l'air -5cm: 19.09.2020 19:00:00 - 25.09.2020 19:00:00 (CEST)Friesoythe-Altenoythe, Allemagne (10210): Température de l'air -20cm & Température de l'air -100cm: 19.09.2020 19:00:00 - 25.09.2020 19:00:00 (CEST)Friesoythe-Altenoythe, Allemagne (10210): Vitesse du vent & gusts: 19.09.2020 19:00:00 - 25.09.2020 19:00:00 (CEST)Friesoythe-Altenoythe, Allemagne (10210): Direction du vent: 19.09.2020 19:00:00 - 25.09.2020 19:00:00 (CEST)Friesoythe-Altenoythe, Allemagne (10210): reduced air pressure: 19.09.2020 19:00:00 - 25.09.2020 19:00:00 (CEST)Friesoythe-Altenoythe, Allemagne (10210): visibility: 19.09.2020 19:00:00 - 25.09.2020 19:00:00 (CEST)Friesoythe-Altenoythe, Allemagne (10210): Ensoleillement: 19.09.2020 19:00:00 - 25.09.2020 19:00:00 (CEST)Friesoythe-Altenoythe, Allemagne (10210): Quantités de précipitations: 19.09.2020 19:00:00 - 25.09.2020 19:00:00 (CEST)
Date & Time tt [°C] td [°C] tt 5cm [°C] tt -5cm [°C] tt -20cm [°C] tt -100cm [°C] ff [km/h] ff [knt] fx [km/h] fx [knt] dd ppp [hPa] vv [km] sd [min] rr [mm]
25.09.2020 19:00:00 12,0 6,9 10,6 15,5 16,1 16,0 11 6 25 13 SSE 995,5 72 27 0,0
25.09.2020 18:00:00 14,2 7,0 16,0 17,3 16,0 16,0 13 7 27 15 S 995,8 68 53 0,0
25.09.2020 17:00:00 13,6 6,3 14,9 17,4 15,9 16,0 14 8 31 17 S 995,7 75 3 0,0
25.09.2020 16:00:00 14,0 5,8 15,5 18,1 15,7 16,0 17 9 32 17 SSW 995,8 67 6 0,0
25.09.2020 15:00:00 13,2 6,0 14,0 18,7 15,4 16,0 17 9 35 19 S 996,0 74 12 0,0
25.09.2020 14:00:00 14,0 5,8 16,0 19,7 15,1 16,0 19 10 36 20 SSW 996,1 67 46 0,0
25.09.2020 13:00:00 13,8 6,3 16,0 17,6 14,9 16,0 23 13 39 21 SSW 996,2 59 46 0,0
25.09.2020 12:00:00 13,0 6,6 15,3 16,6 14,8 16,0 20 11 36 19 SSW 996,4 48 60 0,0
25.09.2020 11:00:00 12,3 7,7 13,7 14,5 14,8 16,0 18 10 37 20 SW 996,2 58 59 0,0
25.09.2020 10:00:00 11,5 8,7 11,6 12,8 14,9 16,0 20 11 35 19 SSW 995,9 71 13 0,0
25.09.2020 09:00:00 11,4 10,5 11,0 12,1 15,0 16,0 15 8 26 14 SSW 995,5 34 0 0,0
25.09.2020 08:00:00 11,3 10,7 10,8 12,1 15,0 16,0 13 7 23 12 S 994,9 39 0 0,1
25.09.2020 07:00:00 11,6 11,0 11,1 12,3 15,1 16,0 10 5 20 11 S 995,0 26 0 0,5
25.09.2020 06:00:00 11,7 11,1 11,3 12,4 15,2 16,0 9 5 25 13 S 994,6 29 0 0,2
25.09.2020 05:00:00 12,7 11,2 11,7 12,3 15,4 16,0 18 10 41 22 S 995,0 6 0 0,3
25.09.2020 04:00:00 11,4 8,3 11,1 11,9 15,5 16,0 8 4 14 8 ESE 994,8 71 0 0,0
25.09.2020 03:00:00 11,0 7,5 10,5 11,4 15,7 16,0 12 7 18 10 ESE 995,5 73 0 0,0
25.09.2020 02:00:00 11,0 7,5 10,0 11,7 16,0 16,0 11 6 16 9 E 996,4 75 0 0,0
25.09.2020 01:00:00 10,5 7,5 9,3 11,9 16,2 16,0 9 5 15 8 E 997,3 53 0 0,0
25.09.2020 00:00:00 10,9 7,7 9,8 12,3 16,4 16,0 10 6 15 8 ESE 998,2 69 0 0,0
24.09.2020 23:00:00 12,1 7,9 10,9 13,0 16,7 16,0 10 5 14 8 ESE 998,8 59 0 0,0
24.09.2020 22:00:00 11,1 8,0 9,8 13,1 16,9 16,0 10 5 16 8 ESE 999,6 72 0 0,0
24.09.2020 21:00:00 11,4 8,0 8,7 14,0 17,1 16,0 8 5 16 8 ESE 1000,1 64 0 0,0
24.09.2020 20:00:00 13,7 7,9 11,8 15,4 17,1 16,0 11 6 18 10 SSE 1000,7 67 0 0,0
24.09.2020 19:00:00 15,9 8,4 14,8 17,3 17,1 16,0 11 6 24 13 S 1001,2 63 31 0,0
24.09.2020 18:00:00 17,2 7,1 16,9 19,1 17,0 16,0 16 9 34 18 S 1001,5 70 48 0,0
24.09.2020 17:00:00 17,9 7,8 18,8 20,0 16,8 16,0 19 10 44 24 SSW 1001,7 65 55 0,0
24.09.2020 16:00:00 17,8 8,2 19,8 20,1 16,5 16,0 26 14 40 22 S 1002,0 73 34 0,0
24.09.2020 15:00:00 17,9 8,1 21,1 20,9 16,3 16,0 24 13 35 19 SSW 1002,4 75 44 0,0
24.09.2020 14:00:00 16,9 7,9 19,7 19,7 16,1 16,0 17 9 36 19 SSW 1002,7 55 41 0,0
24.09.2020 13:00:00 15,9 8,1 17,4 18,2 15,9 16,0 19 10 39 21 SW 1003,0 53 37 0,0
24.09.2020 12:00:00 15,8 9,0 18,9 17,3 15,9 16,0 23 12 40 22 SW 1003,0 55 41 0,0
24.09.2020 11:00:00 14,6 9,3 15,8 15,2 15,9 16,0 22 12 39 21 SW 1002,7 43 16 0,0
24.09.2020 10:00:00 13,8 9,3 14,8 14,0 16,0 16,0 21 11 40 22 SW 1001,8 57 6 0,0
24.09.2020 09:00:00 13,4 9,5 13,5 13,3 16,2 16,0 23 12 40 22 SW 1000,9 50 51 0,0
24.09.2020 08:00:00 12,9 10,1 12,0 12,6 16,4 16,0 19 10 34 18 SW 999,9 41 0 0,0
24.09.2020 07:00:00 14,0 10,6 12,8 13,5 16,5 16,0 23 13 37 20 SW 999,0 43 0 0,0
24.09.2020 06:00:00 15,5 12,7 14,0 14,9 16,6 16,0 23 12 36 19 SW 998,1 55 0 0,0
24.09.2020 05:00:00 15,7 14,5 14,7 15,1 16,7 16,0 21 11 36 20 SSW 997,3 55 0 0,3
24.09.2020 04:00:00 15,9 14,4 14,8 15,1 16,8 16,0 17 9 29 15 S 997,3 29 0 0,3
24.09.2020 03:00:00 16,5 14,0 14,9 15,1 16,9 16,0 24 13 45 24 SSW 997,6 36 0 0,8
24.09.2020 02:00:00 16,3 12,7 15,0 14,9 17,1 16,0 16 9 24 13 SSE 997,8 43 0 0,0
24.09.2020 01:00:00 15,9 13,0 14,8 15,0 17,3 16,0 14 8 20 11 SSE 998,8 38 0 0,0
24.09.2020 00:00:00 14,7 13,0 13,0 14,9 17,4 16,0 10 5 13 7 S 999,9 29 0 0,0
23.09.2020 23:00:00 15,6 13,7 14,6 15,9 17,6 16,0 8 5 13 7 S 1000,7 23 0 0,0
23.09.2020 22:00:00 15,9 13,7 14,2 16,0 17,8 16,0 8 5 16 9 SSW 1001,2 24 0 0,0
23.09.2020 21:00:00 16,5 14,0 14,8 17,0 17,9 16,0 11 6 17 9 S 1001,2 31 0 0,0
23.09.2020 20:00:00 16,6 15,0 15,8 18,4 17,9 16,0 9 5 12 7 S 1001,5 27 0 0,0
23.09.2020 19:00:00 17,2 15,0 16,3 19,8 17,7 16,0 8 5 32 17 W 1001,7 24 0 1,5
23.09.2020 18:00:00 20,7 13,3 19,9 22,0 17,5 16,0 13 7 29 16 S 1001,8 40 37 0,0
23.09.2020 17:00:00 22,3 13,6 24,2 23,5 17,1 16,0 16 8 31 17 S 1002,5 39 43 0,0
23.09.2020 16:00:00 22,5 13,2 25,3 24,4 16,6 16,0 18 10 32 17 SW 1003,0 56 42 0,0
23.09.2020 15:00:00 22,5 13,7 26,1 24,4 16,1 16,0 17 9 33 18 SW 1003,5 49 54 0,0
23.09.2020 14:00:00 21,5 13,7 24,8 23,6 15,6 16,0 19 10 33 18 SW 1003,8 44 53 0,0
23.09.2020 13:00:00 20,9 14,4 24,3 21,8 15,2 16,0 16 9 31 17 SW 1004,2 21 60 0,0
23.09.2020 12:00:00 19,6 13,7 23,0 19,2 15,0 16,0 13 7 23 12 SW 1004,7 21 59 0,0
23.09.2020 11:00:00 17,6 12,7 20,5 16,0 14,9 16,0 10 5 19 10 SW 1004,9 12 53 0,0
23.09.2020 10:00:00 14,9 10,5 16,2 13,4 15,0 16,0 9 5 16 8 SSW 1004,7 8 52 0,0
23.09.2020 09:00:00 12,0 9,6 11,7 11,5 15,2 16,0 8 5 13 7 S 1004,5 9 17 0,0
23.09.2020 08:00:00 9,1 8,2 7,2 10,4 15,4 16,0 8 4 11 6 S 1004,5 6 0 0,0
23.09.2020 07:00:00 5,9 5,5 4,3 10,4 15,7 16,0 6 4 9 5 S 1004,5 7 0 0,0
23.09.2020 06:00:00 5,5 5,0 4,3 10,6 15,9 16,0 6 3 8 4 S 1004,5 11 0 0,0
23.09.2020 05:00:00 5,4 4,9 3,8 11,0 16,2 16,0 0 0 4 2 N 1004,8 13 0 0,0
23.09.2020 04:00:00 6,2 5,9 4,7 11,4 16,5 16,0 4 2 5 3 SSE 1005,1 6 0 0,0
23.09.2020 03:00:00 6,0 5,6 4,4 11,8 16,7 16,0 4 2 6 3 SSE 1005,5 10 0 0,0
23.09.2020 02:00:00 6,8 6,6 5,4 12,4 17,0 16,0 5 3 6 3 SE 1005,7 2,9 0 0,0
23.09.2020 01:00:00 7,0 6,5 5,2 13,0 17,3 16,0 3 2 4 2 S 1006,2 0,8 0 0,0
23.09.2020 00:00:00 7,9 7,4 5,8 13,7 17,6 16,0 3 2 4 2 SSE 1006,6 12 0 0,0
22.09.2020 23:00:00 8,6 7,6 6,9 14,6 17,9 16,0 3 1 4 2 SSE 1006,7 32 0 0,0
22.09.2020 22:00:00 9,9 8,6 7,8 15,7 18,1 16,0 2 1 4 2 SW 1006,9 20 0 0,0
22.09.2020 21:00:00 11,4 9,7 9,1 17,0 18,3 16,0 2 1 3 2 SW 1007,0 31 0 0,0
22.09.2020 20:00:00 14,0 11,7 11,3 18,9 18,3 16,0 3 2 4 2 NW 1007,2 14 0 0,0
22.09.2020 19:00:00 18,4 13,9 16,2 21,5 18,1 16,0 0 0 5 3 N 1007,4 41 44 0,0
22.09.2020 18:00:00 22,7 12,8 23,5 23,8 17,7 16,0 5 3 10 5 W 1007,8 44 60 0,0
22.09.2020 17:00:00 23,2 12,4 25,1 25,4 17,2 16,0 7 4 14 7 W 1008,5 44 60 0,0
22.09.2020 16:00:00 23,2 11,2 26,7 26,0 16,6 16,0 7 4 14 8 WSW 1009,1 37 60 0,0
22.09.2020 15:00:00 23,1 11,0 27,0 25,9 16,0 16,0 7 4 13 7 WSW 1009,5 50 60 0,0
22.09.2020 14:00:00 22,4 11,7 26,8 25,0 15,4 16,0 6 4 12 7 SSW 1010,1 38 60 0,0
22.09.2020 13:00:00 21,6 11,4 27,0 22,6 15,0 16,0 4 2 8 5 WSW 1010,6 38 60 0,0
22.09.2020 12:00:00 19,5 11,5 23,4 19,4 14,7 16,0 4 2 7 4 SSW 1011,0 25 60 0,0
22.09.2020 11:00:00 16,1 11,4 19,5 15,9 14,7 16,1 6 4 10 6 WNW 1011,6 17 60 0,0
22.09.2020 10:00:00 12,6 11,7 14,5 12,8 14,8 16,1 4 2 6 3 S 1011,6 9 33 0,0
22.09.2020 09:00:00 7,0 7,0 7,8 10,9 15,0 16,1 2 1 8 4 SSE 1011,6 0,2 0 0,0
22.09.2020 08:00:00 4,6 4,5 4,6 9,9 15,2 16,1 4 2 8 4 NNW 1011,6 1,9 0 0,0
22.09.2020 07:00:00 4,8 4,8 4,2 10,2 15,4 16,1 0 0 3 2 N 1011,6 0,1 0 0,0
22.09.2020 06:00:00 4,8 4,7 4,2 10,5 15,7 16,1 2 1 3 2 SSW 1011,7 0,1 0 0,0
22.09.2020 05:00:00 5,2 5,1 4,0 10,9 16,0 16,1 2 1 5 3 NNE 1012,3 0,1 0 0,0
22.09.2020 04:00:00 5,6 5,4 4,7 11,2 16,2 16,1 2 1 5 3 E 1012,6 0,2 0 0,0
22.09.2020 03:00:00 5,8 5,5 4,2 11,6 16,5 16,1 1 1 3 2 S 1013,1 6 0 0,0
22.09.2020 02:00:00 6,2 5,6 4,5 12,1 16,8 16,1 2 1 5 3 NNE 1013,7 9 0 0,0
22.09.2020 01:00:00 7,0 6,7 5,1 12,7 17,1 16,1 4 2 5 3 NW 1014,0 0,5 0 0,0
22.09.2020 00:00:00 7,4 6,6 5,7 13,4 17,4 16,1 2 1 4 2 N 1014,4 32 0 0,0
21.09.2020 23:00:00 8,0 6,7 6,1 14,3 17,7 16,1 2 1 4 2 NE 1014,5 64 0 0,0
21.09.2020 22:00:00 9,3 8,2 7,2 15,4 17,9 16,1 4 2 5 3 NE 1014,7 34 0 0,0
21.09.2020 21:00:00 11,0 9,7 8,5 16,9 18,0 16,1 5 3 6 3 NNE 1015,0 36 0 0,0
21.09.2020 20:00:00 14,1 11,2 11,3 18,9 18,0 16,1 5 3 7 4 NE 1015,0 39 9 0,0
21.09.2020 19:00:00 19,6 12,0 16,6 21,7 17,8 16,1 5 3 8 5 ENE 1015,0 50 60 0,0
21.09.2020 18:00:00 22,9 11,3 27,7 24,3 17,4 16,1 4 2 11 6 NE 1015,2 74 60 0,0
21.09.2020 17:00:00 23,5 8,5 28,1 26,0 16,8 16,1 5 3 10 6 NE 1015,6 72 60 0,0
21.09.2020 16:00:00 23,8 7,9 29,6 26,6 16,1 16,1 3 2 14 8 E 1015,9 61 60 0,0
21.09.2020 15:00:00 23,6 9,4 28,2 26,1 15,4 16,1 4 2 16 9 SSE 1016,4 56 60 0,0
21.09.2020 14:00:00 22,3 9,9 26,5 24,7 14,8 16,1 10 5 19 10 SE 1017,0 59 59 0,0
21.09.2020 13:00:00 21,4 10,3 25,6 22,2 14,3 16,1 5 3 14 7 ESE 1017,4 37 60 0,0
21.09.2020 12:00:00 18,6 10,1 22,3 18,9 14,0 16,1 8 5 12 6 SE 1017,9 53 60 0,0
21.09.2020 11:00:00 15,8 9,3 19,9 15,2 13,9 16,1 4 2 9 5 E 1018,5 44 60 0,0
21.09.2020 10:00:00 12,4 9,2 14,7 11,7 14,0 16,1 6 4 11 6 ESE 1018,4 26 60 0,0
21.09.2020 09:00:00 9,3 8,1 9,9 9,1 14,3 16,2 4 2 6 3 ENE 1018,5 10 60 0,0
21.09.2020 08:00:00 4,2 4,0 2,7 8,1 14,5 16,2 5 3 5 3 NE 1018,5 0,2 2 0,0
21.09.2020 07:00:00 2,7 2,3 0,7 8,3 14,8 16,2 4 2 10 5 ENE 1018,3 15 0 0,0
21.09.2020 06:00:00 3,1 2,7 1,2 8,7 15,1 16,2 5 3 6 3 NE 1018,2 20 0 0,0
21.09.2020 05:00:00 3,4 2,9 1,5 9,2 15,4 16,2 4 2 6 4 NE 1018,4 42 0 0,0
21.09.2020 04:00:00 4,2 3,5 2,1 9,7 15,7 16,2 4 2 6 4 ENE 1018,9 23 0 0,0
21.09.2020 03:00:00 5,3 4,4 2,4 10,2 16,0 16,2 4 2 9 5 ENE 1019,4 34 0 0,0
21.09.2020 02:00:00 6,7 5,9 2,8 10,8 16,3 16,2 5 3 12 6 NE 1019,6 28 0 0,0
21.09.2020 01:00:00 5,9 5,4 3,2 11,4 16,6 16,2 6 3 11 6 NNE 1019,5 33 0 0,0
21.09.2020 00:00:00 6,7 5,6 4,4 12,3 16,9 16,2 3 1 10 6 NNE 1019,4 36 0 0,0
20.09.2020 23:00:00 8,2 7,2 5,1 13,2 17,2 16,2 5 3 10 6 E 1019,2 39 0 0,0
20.09.2020 22:00:00 10,5 9,5 6,2 14,3 17,4 16,2 6 3 10 5 NE 1019,4 36 0 0,0
20.09.2020 21:00:00 12,9 10,4 8,9 15,9 17,6 16,2 8 4 13 7 NNE 1019,4 45 0 0,0
20.09.2020 20:00:00 15,0 11,0 11,9 17,7 17,6 16,2 8 4 16 9 NNE 1019,3 28 11 0,0
20.09.2020 19:00:00 17,9 9,9 17,2 20,3 17,4 16,2 11 6 20 11 NNE 1019,1 47 60 0,0
20.09.2020 18:00:00 20,5 7,4 22,8 22,8 17,0 16,2 13 7 21 11 NE 1019,0 50 60 0,0
20.09.2020 17:00:00 21,3 7,9 24,8 24,6 16,5 16,2 13 7 21 12 NE 1018,9 72 60 0,0
20.09.2020 16:00:00 21,5 7,7 26,0 25,1 15,8 16,2 10 6 23 12 ENE 1019,0 75 60 0,0
20.09.2020 15:00:00 21,2 6,7 26,8 24,9 15,2 16,2 13 7 25 13 ENE 1019,3 45 60 0,0
20.09.2020 14:00:00 20,4 9,7 26,0 23,6 14,6 16,2 12 6 26 14 ENE 1019,7 75 60 0,0
20.09.2020 13:00:00 19,0 8,8 23,6 21,2 14,1 16,2 12 6 25 14 E 1019,9 63 60 0,0
20.09.2020 12:00:00 17,8 8,3 22,4 18,1 13,8 16,2 11 6 20 11 ENE 1020,3 63 60 0,0
20.09.2020 11:00:00 15,0 8,4 20,0 14,5 13,7 16,3 10 5 16 9 NE 1020,5 71 60 0,0
20.09.2020 10:00:00 11,8 7,6 15,2 11,0 13,8 16,3 7 4 13 7 ENE 1020,7 75 60 0,0
20.09.2020 09:00:00 8,9 6,9 9,6 8,4 14,1 16,3 5 3 9 5 NE 1020,3 49 60 0,0
20.09.2020 08:00:00 4,5 4,3 2,0 7,2 14,4 16,3 5 3 10 5 ENE 1020,1 27 3 0,0
20.09.2020 07:00:00 4,2 4,0 -0,3 7,5 14,7 16,3 6 4 9 5 NE 1019,8 27 0 0,0
20.09.2020 06:00:00 3,4 2,8 0,1 8,0 15,0 16,3 6 3 11 6 ENE 1019,6 32 0 0,0
20.09.2020 05:00:00 6,1 5,6 2,9 8,5 15,3 16,3 8 4 11 6 NE 1019,7 37 0 0,0
20.09.2020 04:00:00 5,8 5,0 0,7 9,0 15,7 16,3 6 3 10 5 NE 1019,9 46 0 0,0
20.09.2020 03:00:00 7,2 6,0 4,0 9,6 16,0 16,3 8 4 11 6 NE 1020,0 58 0 0,0
20.09.2020 02:00:00 7,3 5,6 2,8 10,3 16,3 16,3 7 4 11 6 NE 1020,1 59 0 0,0
20.09.2020 01:00:00 7,6 5,5 2,6 11,1 16,6 16,3 6 4 11 6 NE 1020,4 67 0 0,0
20.09.2020 00:00:00 10,1 6,1 5,5 12,1 17,0 16,3 7 4 14 7 ENE 1020,4 65 0 0,0
19.09.2020 23:00:00 10,8 6,5 7,5 13,0 17,2 16,3 9 5 14 8 ENE 1020,2 66 0 0,0
19.09.2020 22:00:00 11,5 6,9 8,1 14,1 17,5 16,3 9 5 13 7 ENE 1020,1 75 0 0,0
19.09.2020 21:00:00 13,6 7,4 10,5 15,5 17,7 16,3 9 5 17 9 ENE 1019,8 68 0 0,0
19.09.2020 20:00:00 15,6 7,4 13,2 17,3 17,7 16,3 13 7 21 12 ENE 1019,5 68 12 0,0
19.09.2020 19:00:00 18,2 6,4 17,2 20,1 17,5 16,3 13 7 26 14 ENE 1019,6 75 60 0,0

tt = Température de l'air
td = dewpoint
tt 5cm = Température de l'air 5cm
tt -5cm = Température de l'air -5cm
tt -20cm = Température de l'air -20cm
tt -100cm = Température de l'air -100cm
ff = Vitesse du vent
fx = gusts
dd = Direction du vent
ppp = reduced air pressure
vv = visibility
sd = Ensoleillement
rr = Quantités de précipitations

stations d'obs. à proximité